Wind_Speed
7 8 8 8 8 9 9 9 9 9 10 10 10 10 11 11 11 12 12 12 12 12 12 12 12 12 13 14 15 16 16 16 16 14 8 4 4 4 4 6 4 5 8 11 12 13 15 15 14 13 12 10 10 12 12 11 9 5 2 2 4 3 2 4 4 2 0 4 6 9 12 7 11 14 4 3 4 6 5 0 4 4 2 13 14 21 32 28
7 8 8 8 8 8 8 8 9 9 9 10 10 10 10 11 11 11 11 12 12 12 12 13 13 13 14 15 16 16 16 16 13 5 3 4 5 5 2 6 4 4 7 9 11 12 14 15 16 15 13 10 9 11 10 9 9 3 1 3 4 1 1 3 2 1 1 7 10 10 10 7 10 10 4 2 2 4 4 2 4 2 4 13 15 26 32 28
7 7 8 8 8 8 8 8 9 9 9 9 10 10 11 11 11 11 11 12 12 13 13 13 13 14 15 15 16 15 16 14 6 6 6 4 6 5 2 7 5 5 6 7 8 9 9 11 15 15 14 10 8 11 8 8 8 3 2 5 3 2 1 3 2 4 6 9 9 10 12 9 7 8 7 4 4 6 6 6 7 7 10 13 16 29 31 28
7 8 8 8 9 9 9 9 9 9 9 10 10 10 11 11 11 11 12 12 13 13 13 13 14 15 15 15 16 15 16 9 4 5 3 5 6 6 2 5 6 7 9 8 9 9 8 9 14 16 13 7 6 9 7 7 7 3 4 3 3 2 1 1 5 9 12 10 6 10 13 11 8 9 7 3 4 5 8 12 11 11 16 17 20 29 29 27
8 8 9 9 9 9 9 10 10 10 10 10 10 10 11 11 11 11 12 12 13 13 13 14 13 15 15 15 15 15 13 3 4 3 2 3 6 6 2 6 8 10 11 10 11 11 9 11 14 15 10 4 6 7 5 8 7 4 5 2 4 2 4 5 10 12 13 11 8 10 10 11 13 11 8 6 7 4 5 12 15 13 17 21 25 31 29 25
9 9 9 9 10 9 10 10 10 10 10 10 10 10 11 11 11 11 12 12 13 13 14 14 14 15 15 16 16 14 9 1 2 6 5 4 4 5 4 6 8 10 11 10 11 11 10 14 15 12 7 3 5 5 5 11 9 5 4 1 3 4 4 8 13 13 14 11 8 9 9 12 12 11 8 8 10 8 7 8 14 16 17 20 26 32 30 24
9 9 10 10 10 10 10 10 10 10 11 11 10 10 10 11 11 11 12 12 13 13 14 14 14 14 15 16 15 13 10 7 6 8 7 5 2 3 5 6 7 8 10 9 10 12 13 16 15 12 7 3 4 5 7 12 10 9 4 1 3 4 6 11 14 15 16 13 12 13 12 10 8 9 9 7 9 11 10 6 10 17 17 20 27 29 26 21
9 9 10 11 11 11 11 11 11 11 11 11 11 11 11 11 11 12 12 12 12 13 14 14 14 14 15 15 13 13 12 7 5 5 4 3 3 4 6 5 6 7 7 7 7 10 13 17 17 13 6 2 6 8 8 9 8 9 5 1 4 6 9 13 15 17 18 16 16 12 9 9 10 10 9 9 9 6 7 5 9 16 17 20 25 23 19 16
9 10 10 11 11 11 11 12 11 11 11 11 11 11 11 11 12 12 12 12 13 13 13 13 14 14 14 13 13 11 7 3 4 4 3 2 4 5 6 5 4 5 5 5 5 8 12 17 17 13 5 4 9 10 9 8 6 6 7 6 7 8 10 13 15 16 15 13 11 7 7 10 10 9 6 7 6 3 4 6 11 15 17 19 20 17 16 16
10 10 10 11 11 11 12 12 12 12 12 12 11 11 11 11 12 12 12 12 13 13 13 13 13 13 14 12 9 5 3 4 3 2 4 2 6 6 6 4 2 2 3 4 6 8 11 13 15 11 5 7 9 8 8 7 4 3 6 7 9 9 10 11 12 14 13 11 10 8 7 8 6 4 3 2 3 7 8 10 12 15 17 18 17 16 19 20
10 11 11 12 12 12 12 12 12 12 12 12 12 12 12 12 13 13 12 12 13 13 13 13 13 13 13 12 7 4 6 5 2 0 3 5 7 7 6 3 1 1 2 2 3 7 10 10 13 9 4 7 8 5 6 6 5 4 3 5 6 6 8 9 11 13 9 7 9 7 5 5 4 3 3 3 6 10 11 12 13 15 17 18 18 19 22 21
12 12 13 13 13 13 13 13 13 13 13 12 12 13 13 13 13 13 13 13 13 13 13 13 13 13 13 14 12 7 5 5 4 5 3 4 6 7 7 4 2 1 1 1 0 4 8 10 13 8 3 7 7 4 4 3 4 5 3 4 4 3 5 5 6 8 3 5 6 5 4 3 4 3 2 3 10 11 12 13 14 15 17 18 18 21 23 21
13 14 14 14 14 14 14 14 14 13 13 13 13 13 13 14 14 14 14 13 14 13 14 14 13 14 12 12 11 8 8 10 10 9 8 7 7 7 7 5 4 3 3 3 2 2 7 13 14 7 4 6 3 1 1 2 3 4 1 1 3 3 3 1 1 4 3 5 4 4 4 3 5 4 1 6 11 13 13 14 15 16 18 17 18 23 24 25
14 15 15 15 15 15 15 15 15 14 13 13 13 13 14 14 14 15 15 14 14 14 14 13 13 13 11 10 12 11 10 10 11 11 11 10 9 8 7 6 5 5 3 3 3 4 8 14 12 6 4 3 0 1 1 2 1 1 1 1 1 2 2 2 1 2 2 2 2 7 4 3 4 5 2 9 11 13 13 15 16 16 18 18 19 24 27 28
15 16 16 16 16 15 15 15 15 14 13 13 13 14 14 14 15 15 15 15 15 14 14 13 13 11 11 13 11 5 2 1 3 5 11 14 12 10 8 7 6 4 4 4 5 4 10 14 10 6 4 1 1 1 1 1 2 2 2 1 1 1 2 4 1 2 2 4 2 6 4 3 4 5 2 10 11 11 11 14 17 17 18 19 21 25 27 29
15 16 17 17 17 16 16 16 15 15 14 12 12 14 14 14 15 14 14 14 13 13 12 10 10 8 8 7 2 2 4 6 6 4 4 13 15 12 8 7 6 5 4 6 6 5 11 14 8 5 3 1 1 1 1 1 0 2 1 2 0 1 1 2 1 2 3 3 3 0 2 3 2 2 3 10 11 11 11 12 16 18 19 21 24 26 28 29
16 17 17 17 17 16 16 15 15 14 13 12 12 13 14 14 14 12 12 11 11 10 9 8 7 7 6 4 3 3 5 8 6 4 2 7 15 15 11 9 7 7 7 8 9 8 11 11 6 4 1 0 1 1 2 3 3 1 1 2 0 1 1 2 1 2 4 3 3 3 3 6 4 3 4 10 12 12 13 14 16 18 18 20 25 27 30 30
16 17 17 17 17 16 16 15 15 13 12 12 11 11 12 12 11 11 10 9 8 6 6 7 4 4 6 7 7 6 8 6 2 1 0 3 12 16 14 10 7 9 10 9 8 8 9 6 3 3 1 1 2 3 4 2 2 2 1 2 1 1 1 2 2 2 6 5 4 4 4 7 5 2 5 10 12 14 15 14 15 18 18 19 22 27 31 31
17 17 17 16 16 15 15 15 14 13 11 10 10 10 9 9 8 8 7 7 5 3 4 5 6 2 2 4 6 7 7 5 2 3 3 4 11 15 14 10 8 11 9 6 5 7 7 4 3 4 3 4 4 5 5 3 2 3 2 2 2 2 2 1 4 4 4 6 7 6 5 6 5 3 6 9 13 14 14 13 14 17 19 20 20 24 31 32
17 17 16 15 15 15 14 14 13 12 10 9 8 7 5 5 4 4 7 11 13 12 12 13 12 13 12 6 6 7 6 6 6 4 3 6 11 13 14 11 8 8 5 3 3 5 6 4 4 5 4 5 5 6 5 3 3 2 1 2 3 4 3 1 5 6 1 4 7 4 4 7 7 5 6 9 11 13 14 15 16 19 21 21 20 22 29 33
16 16 15 15 14 14 13 13 12 11 9 8 6 3 1 2 1 2 8 14 15 15 17 19 18 22 23 16 12 11 9 8 8 6 5 6 9 12 13 10 6 4 2 2 3 3 4 5 4 4 5 5 4 5 4 4 3 2 3 4 4 3 3 3 7 7 1 4 5 2 4 8 9 6 5 7 9 13 17 18 19 22 22 21 21 21 25 30
16 15 14 14 14 13 12 12 12 9 9 7 3 3 4 1 2 5 8 10 14 15 15 17 20 26 28 24 21 19 12 8 10 11 10 8 9 10 10 8 5 3 2 3 3 3 3 5 4 5 5 5 4 4 5 4 3 3 2 4 5 2 1 4 5 4 1 4 4 2 4 9 11 5 4 8 11 15 20 23 23 24 24 23 23 23 23 27
15 14 14 14 13 12 12 11 11 9 7 3 3 6 6 3 4 7 8 8 12 14 12 12 16 23 25 23 22 18 13 10 10 12 15 14 11 12 12 8 5 4 3 5 6 4 3 4 5 6 6 6 4 3 5 3 2 3 3 4 5 1 0 4 2 0 2 4 5 5 5 8 9 4 4 10 14 14 15 20 23 23 24 24 24 25 26 29
14 14 14 14 13 12 11 11 10 7 3 2 5 7 6 5 5 7 7 6 7 8 7 6 9 14 14 13 12 13 16 15 12 11 16 19 16 13 12 9 6 5 5 7 7 6 3 1 5 7 5 6 4 3 5 3 3 3 5 6 5 2 5 6 2 2 4 4 4 5 6 6 5 2 3 5 8 11 9 12 20 22 22 21 21 25 27 29
14 14 14 14 13 11 10 11 7 3 1 2 6 7 6 5 5 6 5 3 3 4 4 2 4 6 4 4 7 11 12 14 18 16 14 22 22 13 8 9 7 6 8 7 5 6 5 4 8 7 3 6 5 4 6 5 4 3 5 9 10 9 9 7 1 2 4 3 2 2 5 3 0 1 3 1 4 10 8 10 18 23 23 20 21 25 27 27
15 15 14 13 13 11 9 7 3 2 2 4 7 6 5 4 4 4 2 1 2 3 1 0 2 2 2 3 8 10 6 6 14 16 15 21 23 15 8 6 4 4 7 6 3 3 3 5 8 6 5 7 6 4 5 6 4 2 3 9 12 11 7 5 4 3 3 2 1 1 4 3 1 3 4 1 4 9 9 11 16 20 23 24 25 26 27 27
15 15 14 13 12 12 8 4 4 4 3 6 8 6 4 3 2 2 1 1 1 2 1 2 1 3 4 3 10 11 3 1 3 12 19 20 21 17 9 6 3 2 5 4 3 2 2 5 5 5 5 6 5 4 5 8 5 1 1 5 7 8 7 7 7 6 3 3 1 2 3 4 4 4 2 1 6 8 10 13 15 18 22 25 26 27 28 28
15 15 13 12 12 12 10 7 6 5 5 7 6 5 4 3 1 0 0 1 0 1 2 2 1 4 5 3 14 10 3 4 1 8 19 21 18 11 7 8 7 5 6 5 5 2 3 6 7 7 5 4 5 4 7 11 6 2 3 4 5 5 6 7 6 5 2 2 4 3 3 4 4 3 2 1 5 8 9 11 12 15 20 24 25 26 26 25
15 14 13 12 12 12 11 8 5 5 8 8 6 5 3 2 1 1 1 1 0 2 2 1 2 3 4 5 13 12 5 4 2 4 15 19 15 6 3 8 7 6 6 5 5 1 2 5 8 8 6 6 7 4 9 13 6 1 6 5 3 3 3 4 4 3 3 3 6 4 5 5 4 2 2 1 4 5 4 5 8 11 17 22 24 24 22 21
14 14 13 13 12 11 10 8 5 5 8 8 7 5 3 3 2 1 1 1 1 2 3 1 1 2 2 2 5 9 6 3 2 7 11 13 11 4 5 8 7 5 3 2 3 1 2 1 3 5 6 5 5 3 7 11 5 4 6 4 3 3 2 2 1 1 3 5 4 4 6 5 3 2 3 1 1 3 4 4 5 8 13 19 21 20 19 18
14 13 12 13 12 10 8 6 4 6 7 8 6 4 4 3 1 2 2 1 2 3 4 2 1 2 2 2 2 2 4 3 3 9 8 7 8 4 6 8 5 3 2 1 2 1 1 1 1 5 8 4 3 3 3 4 3 2 2 2 2 1 2 1 1 1 4 5 0 1 4 5 5 3 1 1 3 5 6 7 7 7 11 14 16 16 16 16
13 12 12 13 11 9 6 3 5 6 7 6 6 7 5 1 1 1 1 3 1 2 3 2 3 4 4 3 2 2 2 3 5 8 6 4 6 5 3 4 4 3 2 3 2 0 2 4 2 3 6 6 4 2 2 2 3 3 2 2 2 1 2 2 2 2 4 4 1 1 2 3 6 4 4 4 5 6 7 9 10 10 10 11 13 13 13 15
11 11 11 11 8 5 3 3 5 7 7 6 7 7 3 1 1 2 2 2 1 2 2 3 6 7 6 3 1 1 1 2 4 6 4 2 5 5 1 1 4 3 1 2 2 1 3 3 2 2 3 8 8 5 4 3 5 6 5 5 4 3 2 2 2 1 4 3 1 2 3 2 4 1 5 5 6 8 10 11 11 10 9 9 10 10 12 14
9 9 7 5 3 1 3 4 4 7 8 7 6 4 3 1 2 0 1 2 1 3 3 3 6 7 2 0 2 2 1 1 2 6 6 3 4 5 1 1 3 2 2 2 1 3 3 2 4 5 2 7 12 9 4 3 5 6 4 3 4 3 3 3 3 4 4 2 2 2 3 3 2 1 4 6 7 9 10 9 4 3 4 4 6 7 10 13
7 6 2 1 0 1 4 4 4 7 9 7 4 2 2 2 1 0 0 2 2 3 5 3 3 3 1 0 3 3 1 1 1 5 5 4 5 5 4 4 4 2 3 3 1 2 2 3 4 3 0 6 10 6 4 5 3 2 2 2 2 3 2 0 0 1 2 2 1 2 2 2 1 1 4 5 8 11 12 12 10 5 5 6 6 9 13 16
4 1 3 3 2 2 1 4 6 9 10 7 3 1 1 1 1 2 1 1 1 3 7 5 1 1 2 2 2 3 2 1 1 2 2 3 3 4 3 3 5 5 4 4 2 1 1 2 1 1 1 5 5 4 6 4 3 3 3 4 1 0 2 2 1 2 1 3 1 1 2 2 1 1 3 7 10 13 13 14 15 12 10 9 6 6 9 12
2 3 5 4 4 6 5 6 8 10 10 5 2 1 2 1 2 2 1 2 2 2 3 2 1 2 2 2 1 4 4 1 1 1 2 2 1 4 4 2 5 8 7 4 2 2 2 2 1 1 3 3 2 2 3 0 2 4 3 4 3 1 1 1 1 1 0 4 1 1 2 2 2 1 2 7 11 12 12 12 15 16 16 14 11 9 8 6
2 6 6 4 5 8 9 8 8 9 6 2 1 0 1 1 2 2 1 2 1 1 1 1 1 2 2 2 2 3 4 1 1 1 2 2 1 3 4 3 6 9 8 6 2 1 2 2 2 2 2 1 1 2 3 2 0 0 1 3 3 2 2 2 2 2 2 3 1 1 1 2 3 1 3 6 9 10 11 12 13 14 14 14 12 10 8 5
6 7 6 5 6 7 8 7 6 6 3 1 0 0 1 2 3 4 3 2 0 1 1 1 1 1 1 2 2 2 3 1 0 1 2 2 1 2 1 1 4 4 4 7 5 1 1 2 1 1 1 1 1 2 2 3 2 1 2 2 0 1 2 2 2 1 3 2 1 1 1 1 1 1 3 5 7 6 8 10 11 11 13 14 13 11 9 5
9 6 4 5 5 6 5 4 4 3 2 1 1 0 1 1 3 5 5 3 1 2 1 1 1 1 2 2 2 2 2 1 1 1 1 2 2 1 1 1 1 1 1 6 5 1 2 2 2 1 2 2 1 0 1 2 3 2 4 4 2 1 0 1 1 1 1 2 2 2 3 1 2 1 2 4 5 3 6 8 8 10 12 12 11 11 10 9
8 4 3 5 5 3 3 4 3 2 1 0 1 1 0 2 2 5 7 4 3 3 2 2 2 2 2 2 2 1 2 2 1 1 1 2 2 1 1 2 1 2 2 4 3 1 1 2 2 1 2 2 0 1 1 1 1 1 3 4 3 3 2 3 3 1 1 1 1 2 3 1 2 1 1 2 3 2 7 9 8 8 9 9 7 7 8 10
6 2 2 5 6 2 2 3 1 1 1 1 1 1 2 3 2 3 5 3 2 3 2 2 3 3 3 2 2 2 2 2 1 1 1 1 1 1 1 4 3 2 3 3 2 1 1 2 2 2 1 2 2 1 0 1 1 2 1 0 1 1 2 4 5 3 2 1 1 1 2 1 1 0 2 2 2 6 9 10 11 9 8 10 9 7 8 9
6 4 3 6 7 4 1 1 1 1 0 1 2 2 2 2 1 2 3 1 1 1 1 1 2 2 2 2 2 2 1 2 1 1 1 0 0 1 5 5 3 2 1 1 2 1 1 1 1 1 1 2 2 1 1 1 2 3 3 3 1 1 1 1 2 1 3 3 2 2 2 1 1 1 3 3 6 10 8 8 11 11 11 12 11 10 10 11
9 7 6 6 7 3 1 0 0 1 1 2 2 1 1 2 2 2 2 1 1 1 1 2 1 1 2 1 2 3 2 2 1 1 1 1 0 4 11 8 2 2 1 2 2 1 1 0 1 2 2 2 1 2 3 2 1 1 2 3 3 2 1 1 1 1 2 2 1 3 3 1 1 2 4 5 7 9 9 10 11 11 12 12 13 12 12 13
9 6 5 5 6 2 1 1 1 0 0 1 2 2 2 1 2 2 2 2 2 1 1 2 2 2 2 2 2 2 2 1 1 1 1 1 2 5 12 14 5 1 2 6 6 3 1 1 0 2 4 4 4 2 2 1 1 1 2 5 7 6 3 1 1 2 4 2 2 3 1 2 2 4 6 6 7 9 11 13 14 14 13 13 14 14 12 12
5 2 2 2 3 2 1 2 1 1 1 0 0 1 2 1 2 3 2 2 2 2 1 2 3 2 1 2 1 1 2 1 1 2 1 2 2 3 10 16 11 4 6 13 13 6 2 3 2 1 1 2 1 1 0 1 1 1 4 7 8 7 4 2 2 2 2 4 3 1 3 7 6 5 6 6 8 9 9 11 14 14 13 13 15 15 14 13
3 2 1 2 2 1 2 2 2 2 1 1 0 2 2 2 3 2 1 1 1 2 1 0 3 2 1 3 1 0 3 3 2 3 3 3 2 3 11 14 11 10 6 8 11 6 3 2 2 4 5 3 1 1 1 2 3 3 5 7 8 9 5 1 1 1 1 3 3 2 7 9 6 6 7 7 8 8 8 10 11 11 10 12 14 16 16 14
2 2 3 4 2 0 2 2 1 2 2 1 0 1 2 2 3 1 1 2 2 2 0 1 4 5 2 2 1 0 2 2 3 3 4 4 3 3 8 9 9 15 13 3 5 3 4 3 1 1 5 5 4 4 5 6 6 7 8 8 9 10 7 5 3 4 4 1 2 7 10 8 5 6 7 7 8 9 10 11 11 10 10 11 15 17 16 16
4 5 4 5 4 2 2 2 2 3 2 0 1 1 1 2 3 1 1 1 2 3 2 1 4 6 4 1 2 1 2 1 2 3 3 5 4 3 3 4 6 14 12 2 3 1 3 3 1 3 4 6 5 4 6 7 7 9 10 10 9 9 9 9 7 6 6 5 6 10 11 8 5 5 7 8 10 11 13 13 13 13 12 13 16 17 17 17
6 6 5 6 6 4 3 2 2 2 1 1 0 0 0 0 2 2 1 1 1 2 2 3 3 5 4 3 2 3 3 2 1 2 1 2 4 3 2 1 3 8 10 3 1 1 1 2 1 1 3 3 5 4 5 7 8 10 12 12 10 9 9 8 7 7 7 8 9 10 10 6 4 6 8 9 12 14 14 14 14 13 12 14 16 17 16 17
6 7 9 8 4 3 3 2 1 1 1 1 0 1 1 0 1 2 2 3 2 2 2 2 1 1 2 4 3 3 3 2 2 2 0 1 2 1 0 1 3 5 7 3 1 1 1 3 2 1 2 1 3 4 2 3 6 8 11 13 12 8 6 5 5 4 4 4 8 7 5 3 4 6 9 11 14 16 15 15 15 13 13 14 16 17 16 17
8 9 10 7 2 3 2 2 1 0 1 0 1 1 1 1 1 1 1 2 3 2 2 1 1 1 1 3 2 1 5 8 8 6 3 3 2 2 2 2 3 5 6 3 2 1 1 4 4 2 3 2 2 4 2 0 2 2 6 8 9 7 4 2 3 5 6 2 4 4 3 4 5 7 8 10 12 13 14 14 13 13 14 15 16 16 17 17
Wind_Direction
341 341 341 342 343 342 342 342 341 341 339 339 339 339 339 340 342 343 343 341 338 336 336 336 336 336 332 326 326 329 331 330 325 321 327 358 6 331 260 231 229 201 197 193 183 182 176 176 180 175 168 157 157 162 162 171 173 172 163 203 232 214 169 184 192 190 217 338 336 338 347 1 342 343 20 109 118 118 143 235 192 209 261 186 183 167 169 175
336 334 334 334 336 335 335 334 334 333 333 334 333 333 332 332 334 335 338 338 335 333 332 333 335 336 331 330 332 332 334 334 333 345 85 72 22 1 242 217 226 193 189 194 190 189 186 179 175 170 162 150 151 162 164 168 174 171 123 219 232 159 157 197 203 255 295 321 328 328 335 346 329 329 336 291 213 162 160 149 179 183 162 179 178 170 175 178
330 327 328 327 327 328 327 326 325 325 326 328 328 329 328 327 329 329 331 332 331 330 330 333 334 333 331 332 334 334 338 342 9 93 97 48 18 11 267 216 213 166 166 189 189 189 193 185 177 168 158 149 155 168 169 171 180 178 201 229 217 134 211 211 239 285 299 311 319 323 322 321 320 323 318 293 203 197 201 178 175 185 174 175 176 175 180 179
323 321 322 321 321 322 322 322 321 319 321 322 323 323 322 322 323 323 325 326 326 327 329 332 334 332 331 334 337 338 342 352 91 100 62 26 16 4 344 197 186 152 156 173 174 174 174 175 176 168 157 143 152 172 176 178 180 180 213 217 114 133 248 238 290 307 308 307 309 313 312 312 323 318 298 247 211 222 215 201 195 194 183 177 177 179 182 179
322 319 318 316 317 318 319 321 321 321 320 319 320 321 321 319 318 319 320 321 323 324 325 329 332 331 331 335 337 339 345 10 117 41 356 7 7 8 52 161 167 153 160 173 172 169 165 168 169 164 157 133 150 166 184 188 183 200 227 173 120 241 300 302 306 309 305 305 306 306 308 314 317 306 277 239 246 262 238 221 214 205 190 185 182 183 184 181
324 321 319 317 318 318 318 320 322 323 321 321 322 322 321 317 316 316 315 317 318 319 322 325 328 328 330 334 334 341 347 329 293 309 286 300 351 29 87 146 159 155 165 177 177 174 166 165 164 160 155 134 161 163 177 188 196 228 242 194 194 255 275 291 300 298 298 299 297 297 301 310 310 306 294 246 243 259 266 243 225 216 201 192 186 185 185 181
326 324 321 320 320 320 319 320 322 324 324 323 324 324 322 319 316 313 313 314 314 316 318 320 324 325 328 332 333 336 325 304 306 296 273 271 289 74 96 137 153 154 168 179 183 183 172 167 165 162 153 131 175 175 169 182 204 234 248 29 265 263 259 283 290 289 295 289 287 294 293 298 292 302 313 273 260 264 255 253 234 217 200 193 188 186 185 178
326 324 322 321 321 321 320 320 322 323 324 324 325 325 323 322 317 315 314 312 312 312 313 316 320 321 324 331 335 333 318 306 327 314 290 260 211 128 111 127 147 154 171 184 190 190 177 172 169 163 163 155 178 177 167 180 210 236 245 280 277 268 266 282 285 286 290 287 293 295 280 280 281 287 295 281 282 274 244 232 213 202 190 191 189 183 177 168
324 322 321 321 320 320 320 320 321 321 322 322 324 325 324 323 318 316 315 313 312 309 309 311 313 316 320 326 334 333 314 313 348 342 342 238 184 144 136 124 135 161 174 181 195 202 185 180 175 167 181 174 169 177 175 189 211 224 233 248 262 269 276 281 282 283 286 289 293 283 269 280 291 291 274 271 269 219 199 184 180 183 183 187 185 176 166 161
323 323 321 319 317 317 317 317 318 318 320 321 323 324 323 321 317 314 314 313 311 308 308 305 306 311 312 320 337 338 297 310 329 14 36 148 160 135 138 121 106 170 183 185 194 206 200 192 181 166 168 165 165 175 178 196 229 215 224 245 256 269 280 277 276 279 285 292 278 256 271 287 294 289 254 251 200 175 163 159 169 174 180 181 173 167 170 173
323 324 321 320 317 315 314 313 314 315 316 319 320 321 320 317 314 312 310 309 308 307 306 302 302 303 306 309 302 276 290 300 271 244 60 118 133 124 140 144 141 185 198 209 213 212 212 197 177 163 151 164 164 168 184 211 262 270 259 262 262 277 280 265 265 276 285 290 268 239 255 291 275 250 263 220 174 166 158 159 170 173 175 172 166 167 171 172
323 324 322 320 319 315 313 312 312 313 314 317 317 318 316 313 311 308 307 305 304 304 302 302 301 299 304 298 282 272 285 279 271 266 224 158 140 141 162 175 175 164 151 169 294 217 206 185 177 178 151 158 158 157 196 235 270 272 290 276 284 323 295 255 252 274 275 261 258 229 245 265 226 228 300 199 174 167 161 162 171 173 172 169 169 170 171 178
322 321 320 319 319 316 316 313 311 312 314 316 316 315 311 309 308 304 302 301 301 299 298 300 299 301 302 291 286 289 282 276 274 261 231 209 197 177 174 181 182 172 150 150 137 156 182 182 185 190 158 161 159 119 262 327 278 259 248 256 306 321 301 311 272 287 268 253 221 192 258 259 223 258 275 189 177 171 164 167 175 171 169 168 169 175 183 199
319 318 317 317 317 317 317 315 313 312 314 316 315 312 308 306 303 300 300 299 297 294 294 295 295 299 293 285 297 295 283 277 265 246 231 223 216 206 189 184 192 184 154 131 135 144 174 182 185 192 192 191 299 7 337 2 4 294 190 152 338 287 291 0 336 307 298 318 166 189 246 281 264 313 204 188 186 183 174 171 175 171 172 171 171 182 195 209
315 314 314 314 315 317 317 316 314 315 317 319 316 311 307 305 301 300 300 297 296 292 291 291 290 296 292 292 300 298 291 267 238 226 222 219 215 215 203 196 204 182 149 140 133 143 177 177 175 187 204 247 342 326 332 25 53 12 248 198 67 229 306 338 341 19 351 357 47 194 241 288 290 335 173 185 193 198 193 179 175 174 174 176 180 189 203 213
312 312 312 313 315 317 318 316 315 318 322 322 317 311 307 305 303 303 301 297 293 288 286 284 284 296 301 298 283 126 91 107 110 88 204 209 206 209 207 204 208 184 153 148 132 121 165 171 170 189 209 223 213 7 19 254 111 46 274 236 42 200 300 334 113 65 352 353 25 313 283 291 291 339 194 187 196 201 203 194 183 179 174 178 186 195 208 214
311 310 310 312 315 317 318 317 317 321 326 324 318 311 308 307 307 308 303 294 287 283 283 278 284 300 278 234 184 182 133 120 113 77 81 193 203 208 207 203 199 179 151 140 139 129 145 159 172 187 179 153 143 132 206 236 224 170 264 230 267 207 232 309 195 64 7 10 14 9 294 275 289 311 218 193 198 200 203 203 193 188 180 179 188 198 210 214
309 309 311 313 316 318 318 318 319 323 328 324 318 313 310 309 310 306 295 287 284 289 290 267 257 309 271 225 220 211 174 149 123 176 219 188 199 207 211 208 186 162 145 136 148 149 149 152 166 170 139 165 166 183 204 219 211 190 193 208 239 198 191 295 271 337 1 352 328 325 283 272 285 280 223 201 202 208 210 209 202 199 192 186 189 198 210 215
308 309 311 314 316 317 318 318 319 322 326 323 319 315 311 311 309 295 276 267 256 257 288 248 204 234 285 186 195 199 190 195 239 255 249 186 188 199 204 200 173 156 151 152 164 169 166 141 149 192 193 180 176 193 206 185 143 143 152 219 249 252 233 266 284 298 342 327 305 297 281 280 283 244 220 208 204 212 216 215 212 210 204 196 192 198 209 217
307 309 311 314 315 316 317 317 316 319 322 321 319 313 310 323 319 281 273 272 262 261 270 259 246 254 262 250 224 230 240 250 269 268 214 181 183 184 181 175 162 160 162 163 166 172 175 174 194 200 172 163 182 194 196 163 131 128 182 241 242 251 268 252 269 273 293 300 288 274 266 271 271 250 225 214 208 214 215 214 217 216 211 203 196 198 208 217
307 309 312 313 314 316 316 314 312 314 316 316 318 300 272 352 358 293 297 288 277 272 269 265 260 258 259 257 248 254 274 284 262 219 182 177 172 169 171 167 159 167 172 115 116 135 180 207 206 176 161 161 175 174 159 141 149 211 237 267 265 238 261 243 262 280 246 246 260 251 266 267 266 255 232 220 210 216 214 211 216 218 218 211 200 199 207 217
307 309 312 312 314 317 315 311 308 309 311 308 294 205 201 242 291 301 306 293 290 289 276 265 258 256 257 257 253 256 268 276 251 221 196 179 173 170 164 163 175 170 134 123 124 128 192 222 197 168 158 117 91 129 149 154 172 207 216 269 270 230 269 247 256 291 226 221 252 275 281 277 277 268 227 220 212 219 215 208 212 214 216 214 204 202 205 214
307 309 311 312 314 316 312 309 307 307 307 287 218 198 205 240 280 300 299 279 292 299 282 260 254 258 262 262 260 251 238 239 251 234 209 194 188 181 165 161 178 154 146 180 181 173 198 230 185 165 151 123 103 128 142 146 177 200 207 246 259 138 198 249 235 291 204 233 273 287 291 282 279 277 235 232 226 232 225 212 216 216 214 213 205 202 203 208
307 308 310 312 313 314 310 305 306 304 299 221 206 199 206 243 267 299 298 269 287 305 293 264 252 267 270 266 254 227 216 222 233 231 211 195 180 173 175 166 152 159 185 188 184 192 206 179 133 138 158 159 143 133 155 190 220 214 216 235 251 202 214 233 253 323 266 247 246 260 275 267 265 263 236 249 250 255 248 223 225 226 224 220 209 207 209 211
306 306 309 311 311 312 308 305 302 281 264 218 205 199 209 244 274 308 308 288 288 284 295 274 239 281 289 232 206 199 206 221 229 224 204 193 180 163 164 165 164 192 190 159 160 207 220 172 143 136 165 176 163 172 185 201 231 242 216 220 231 226 218 214 198 321 280 248 164 230 260 243 217 249 222 261 286 259 246 228 228 226 225 221 212 212 214 215
304 305 308 311 310 307 307 302 266 228 264 214 198 203 222 249 307 329 318 9 312 261 310 79 204 351 4 198 182 176 185 231 237 223 200 197 188 169 149 155 184 199 165 143 156 227 217 172 167 160 164 172 184 210 194 188 215 271 222 209 218 224 217 188 169 205 254 269 105 285 273 264 299 262 226 221 277 259 243 230 229 226 222 217 215 217 216 216
304 305 308 311 307 304 306 286 245 263 253 198 200 214 233 266 349 348 320 28 315 254 95 119 140 21 353 236 174 162 176 320 212 200 196 193 184 177 170 160 173 163 134 139 194 219 150 155 168 166 160 168 196 222 191 178 191 256 187 183 194 205 205 184 181 206 249 309 282 198 246 266 276 257 212 246 265 252 235 227 224 223 223 219 218 219 218 217
304 306 310 309 302 301 302 285 266 249 203 196 210 220 246 294 320 264 48 61 339 11 70 126 106 23 12 174 182 188 306 342 106 189 195 188 177 177 188 183 174 156 149 168 200 190 135 170 177 166 167 188 209 211 173 173 201 250 160 156 175 186 191 179 183 211 224 296 263 187 170 242 259 231 176 218 253 244 231 226 222 222 224 223 221 222 222 220
305 308 309 302 296 296 293 284 269 212 199 207 214 228 263 273 222 153 94 110 294 26 30 141 110 21 33 137 197 226 290 338 4 174 185 184 181 176 187 188 161 135 159 196 214 179 98 201 192 167 173 205 214 193 161 177 206 183 135 123 110 124 130 159 187 203 166 244 258 182 166 241 268 234 211 217 252 262 255 232 225 226 228 227 226 227 227 225
306 309 305 298 295 292 286 278 256 205 198 203 209 233 236 170 155 95 130 239 301 3 354 1 81 338 336 132 219 235 243 291 49 136 164 177 185 164 122 155 139 123 158 276 243 216 32 211 182 182 201 210 206 173 163 183 179 105 131 126 96 102 99 131 163 170 193 240 256 165 183 233 274 250 224 221 311 327 329 302 259 239 235 233 232 232 231 227
307 308 299 295 296 290 288 276 225 187 184 193 201 203 173 147 91 105 155 278 315 342 353 357 331 330 333 313 279 221 211 240 131 142 156 167 177 153 121 142 130 115 157 251 244 282 338 231 176 215 213 189 164 161 159 189 180 111 138 150 126 133 125 137 133 154 228 246 307 130 193 216 242 250 80 41 359 345 320 304 294 263 242 236 235 236 231 222
308 303 292 291 294 289 284 247 187 176 174 182 186 180 166 145 255 175 268 310 336 355 355 344 306 316 327 310 256 211 191 187 166 163 160 162 174 167 151 163 157 146 188 218 211 345 259 234 254 255 216 189 186 190 140 148 189 191 184 183 194 185 153 201 202 192 243 248 102 138 174 208 246 268 30 18 340 331 312 294 285 275 255 235 229 229 221 214
307 297 291 290 293 286 260 221 196 185 175 169 169 165 136 82 217 208 320 325 50 9 329 306 307 302 298 305 290 262 208 159 174 169 146 136 174 172 71 65 155 160 160 187 188 210 234 240 226 250 233 194 193 211 199 167 181 185 179 185 190 169 163 204 201 229 263 263 66 128 170 232 252 298 21 357 341 334 328 308 281 265 259 238 220 216 212 210
303 294 292 284 282 223 230 236 206 183 175 166 156 141 115 151 213 188 8 313 315 332 319 306 308 302 281 323 338 331 172 146 156 156 147 133 164 182 187 148 175 140 94 148 167 193 219 261 196 192 188 177 189 212 213 132 157 176 165 177 195 187 191 212 211 230 254 249 79 121 174 227 234 63 358 342 353 356 0 359 330 248 240 215 194 202 208 206
298 291 267 195 119 284 252 239 198 176 171 163 136 107 149 190 236 115 113 289 307 320 309 303 300 302 345 347 322 352 35 344 94 144 158 158 167 184 188 189 190 153 131 177 193 161 217 275 234 219 335 172 185 193 140 120 146 161 143 174 225 221 184 136 248 229 269 260 123 175 220 264 249 6 356 8 23 20 27 39 46 71 120 135 166 191 196 201
296 245 143 119 58 16 272 194 171 164 165 160 119 103 184 220 226 156 120 304 315 326 314 315 7 6 353 333 318 351 350 10 88 144 171 171 181 176 181 191 182 179 173 174 188 160 193 269 266 315 251 198 201 177 161 186 181 133 179 194 179 240 142 122 116 71 349 259 221 175 255 289 233 189 34 39 42 35 35 46 48 52 74 88 107 141 160 185
278 165 142 106 68 59 78 131 149 154 159 153 111 157 229 237 191 188 1 326 291 322 330 334 8 17 357 331 315 332 328 14 84 226 168 165 207 168 182 206 173 191 200 188 211 216 210 267 263 216 209 218 260 176 140 146 138 139 195 180 123 79 88 112 213 102 195 246 235 131 269 287 243 199 51 40 42 41 40 50 53 51 59 62 64 75 82 119
183 158 142 114 88 78 81 98 126 146 151 132 88 227 236 185 201 228 293 334 294 326 33 281 315 17 17 318 305 321 321 348 31 315 156 177 256 159 165 192 181 198 202 183 200 222 203 266 279 230 219 23 351 172 127 77 101 152 189 139 136 210 192 148 205 204 215 240 232 174 264 266 243 244 42 36 37 44 51 58 59 60 66 67 63 59 54 87
152 146 128 123 114 94 84 83 111 138 131 113 201 248 211 238 254 250 271 323 160 153 336 249 249 349 343 299 287 308 321 336 32 325 158 184 251 154 142 210 185 200 191 178 187 145 150 254 262 192 245 347 11 204 178 159 146 53 137 145 40 272 214 186 179 216 233 228 219 216 246 226 204 11 13 12 19 46 72 73 71 71 76 80 83 85 85 114
151 134 108 139 140 111 80 54 89 124 109 142 205 169 184 262 286 277 286 298 222 207 283 227 200 302 295 294 285 269 308 308 216 280 216 178 186 174 352 331 171 72 160 187 195 103 102 231 241 232 271 268 241 294 259 190 169 169 179 177 168 129 40 203 149 38 266 208 171 217 243 141 85 358 332 349 359 50 96 96 95 92 91 93 95 101 117 147
153 121 108 159 161 129 44 20 63 95 71 149 207 153 228 324 318 297 300 293 236 234 255 237 241 273 271 287 287 243 288 297 216 263 240 181 191 175 46 0 223 125 128 169 186 182 151 182 212 262 289 281 320 32 323 241 184 184 207 200 177 153 158 197 198 149 301 242 165 214 246 85 85 300 331 0 352 92 109 111 119 121 121 119 106 109 133 142
153 115 134 169 172 164 12 15 55 31 80 112 312 249 281 325 310 296 313 304 238 237 242 238 242 247 238 248 269 253 269 282 250 273 262 196 218 207 15 335 293 166 150 164 164 172 135 119 172 224 276 286 293 326 280 247 122 97 92 335 113 152 180 218 222 184 152 188 98 172 250 86 81 26 49 33 67 113 124 128 131 132 132 130 120 116 129 129
135 110 127 160 171 174 18 22 34 4 19 331 322 252 247 294 275 294 324 325 278 250 239 253 241 236 233 241 275 277 272 273 259 273 294 5 215 335 359 333 252 193 139 157 115 110 143 115 149 185 284 302 283 193 156 179 150 112 62 44 33 285 291 258 243 172 165 165 141 200 214 135 63 103 92 69 93 109 114 115 120 122 119 117 112 101 105 114
111 99 108 145 168 170 32 63 137 15 311 333 352 320 272 255 235 279 308 308 321 342 301 281 252 285 291 275 281 287 293 290 286 2 17 61 32 359 11 13 227 216 26 137 127 143 210 244 138 155 146 135 156 196 191 168 104 69 46 29 16 6 5 178 114 135 199 176 166 220 202 100 41 113 106 100 101 94 73 69 87 98 94 94 96 94 99 105
111 95 93 131 167 181 59 127 153 108 283 346 359 354 345 266 241 282 281 273 287 268 272 288 285 293 296 293 275 284 300 272 299 356 24 38 5 353 8 13 6 259 129 117 115 137 164 26 138 189 187 177 169 188 197 158 11 6 24 17 16 19 358 278 153 187 220 174 154 235 190 124 141 113 103 103 94 75 61 62 68 71 72 79 86 90 95 96
126 114 89 119 171 189 106 114 123 120 145 152 25 358 3 323 310 312 271 251 291 292 282 304 311 297 305 336 313 313 348 310 306 17 30 8 356 335 355 6 20 50 101 101 99 107 105 49 29 73 139 180 165 115 353 358 344 321 357 7 10 4 338 277 188 196 198 153 164 275 111 133 141 104 82 77 74 70 63 61 63 64 67 75 81 84 92 95
131 143 143 127 146 127 89 86 80 95 133 172 73 354 342 329 331 326 260 232 317 327 268 105 18 17 343 333 325 334 347 346 10 16 6 348 330 340 349 359 20 13 5 85 93 91 97 73 8 41 66 68 41 49 41 58 81 59 16 11 10 3 351 260 198 343 336 166 182 169 139 136 114 61 50 54 67 71 65 62 67 71 71 79 85 85 88 91
132 135 133 140 153 119 81 86 74 101 117 132 37 350 347 0 356 344 287 295 326 355 345 124 30 15 340 291 258 290 344 11 32 11 358 351 346 20 353 340 1 358 340 0 91 88 112 109 260 91 78 66 60 76 92 94 87 69 49 33 21 18 31 61 51 358 337 297 163 152 144 123 74 48 38 39 56 69 73 75 78 80 80 85 90 87 81 80
126 123 116 127 126 99 119 134 117 108 106 26 355 15 356 359 354 346 246 295 345 3 1 36 4 354 348 292 209 70 7 34 49 20 7 356 356 55 17 310 347 352 334 328 82 71 118 100 172 152 92 57 44 69 106 112 94 68 52 38 32 40 52 62 53 26 31 66 104 120 114 86 53 48 47 51 64 73 77 77 73 72 74 80 85 84 79 77
145 142 129 120 102 72 82 109 101 107 79 351 35 63 259 267 345 334 255 220 14 357 3 42 8 340 357 21 92 78 27 1 38 28 54 359 354 30 38 302 358 334 310 296 69 310 139 118 158 126 99 58 29 42 99 113 103 76 50 31 27 37 46 47 37 23 41 80 103 106 98 80 57 64 69 72 73 71 67 65 64 64 68 76 80 78 77 79
161 156 147 135 101 14 16 63 58 107 63 6 4 350 331 335 355 325 263 218 220 293 334 36 18 317 14 17 37 87 35 338 301 306 195 132 357 8 227 315 18 332 303 306 33 351 76 128 150 120 131 113 17 15 50 102 111 82 44 19 10 16 26 28 26 14 21 91 122 119 100 95 103 92 81 74 73 72 66 62 64 65 66 72 75 74 74 78
155 153 151 141 95 352 7 82 62 84 101 290 252 279 292 303 342 330 293 246 233 266 300 247 192 173 22 349 322 290 334 321 296 285 250 186 169 91 77 329 286 261 274 314 16 3 116 141 147 146 155 146 11 346 342 193 164 101 28 358 350 359 0 353 26 19 1 7 147 141 113 112 124 112 91 77 74 75 72 67 66 70 74 73 72 74 77 78
Height
1504 1503 1503 1503 1502 1502 1502 1501 1501 1501 1500 1500 1500 1499 1499 1498 1498 1498 1497 1496 1496 1495 1495 1494 1494 1493 1492 1491 1490 1489 1488 1487 1486 1485 1485 1485 1485 1485 1485 1485 1486 1487 1488 1489 1490 1492 1493 1494 1496 1497 1499 1500 1501 1502 1504 1504 1505 1505 1506 1509 1506 1503 1504 1503 1502 1502 1502 1500 1499 1499 1499 1499 1496 1494 1495 1494 1494 1494 1494 1494 1493 1493 1492 1492 1493 1493 1494 1495
1503 1503 1503 1502 1502 1502 1501 1501 1500 1500 1500 1499 1499 1499 1498 1498 1497 1497 1496 1496 1495 1494 1494 1493 1493 1492 1491 1490 1489 1488 1487 1486 1485 1484 1484 1485 1485 1485 1484 1485 1486 1487 1488 1489 1490 1491 1492 1493 1495 1497 1498 1500 1501 1503 1503 1504 1504 1505 1507 1507 1501 1501 1502 1501 1501 1502 1502 1500 1499 1499 1499 1499 1497 1495 1495 1494 1494 1494 1494 1494 1494 1493 1493 1492 1493 1493 1494 1495
1503 1502 1502 1502 1501 1501 1500 1500 1500 1499 1499 1498 1498 1498 1498 1497 1497 1496 1496 1495 1494 1494 1493 1493 1492 1492 1491 1490 1489 1487 1486 1485 1484 1484 1484 1485 1485 1485 1484 1484 1485 1486 1488 1489 1490 1491 1492 1493 1494 1496 1498 1500 1501 1502 1503 1504 1504 1504 1506 1503 1499 1501 1502 1501 1502 1502 1502 1501 1499 1499 1498 1498 1497 1495 1495 1493 1493 1493 1492 1493 1493 1492 1492 1492 1493 1493 1494 1495
1502 1502 1502 1501 1501 1500 1500 1499 1499 1498 1498 1497 1497 1497 1496 1496 1496 1495 1495 1494 1493 1493 1492 1492 1492 1491 1490 1489 1488 1487 1486 1484 1484 1484 1484 1484 1485 1484 1483 1484 1485 1486 1487 1488 1490 1491 1492 1493 1495 1496 1498 1500 1501 1502 1503 1503 1503 1504 1502 1499 1500 1502 1501 1501 1502 1501 1501 1500 1499 1498 1497 1495 1495 1495 1494 1493 1493 1492 1490 1490 1490 1490 1490 1491 1493 1494 1494 1496
1502 1501 1501 1500 1500 1499 1499 1499 1498 1498 1497 1497 1496 1495 1495 1495 1495 1494 1494 1493 1492 1492 1491 1491 1491 1490 1489 1489 1488 1487 1486 1485 1484 1484 1484 1484 1484 1484 1483 1484 1485 1486 1487 1488 1489 1490 1492 1493 1494 1496 1497 1499 1501 1502 1502 1502 1503 1502 1499 1499 1501 1502 1501 1500 1500 1500 1500 1499 1499 1498 1496 1494 1493 1493 1492 1492 1492 1489 1487 1488 1489 1490 1490 1490 1491 1492 1494 1496
1501 1500 1500 1499 1499 1499 1498 1498 1497 1497 1496 1495 1495 1494 1494 1494 1493 1493 1493 1492 1491 1491 1490 1490 1490 1489 1489 1488 1487 1487 1486 1485 1484 1484 1484 1484 1484 1484 1484 1484 1485 1486 1487 1488 1489 1490 1491 1493 1494 1496 1497 1498 1500 1500 1501 1502 1502 1500 1498 1499 1501 1501 1501 1500 1499 1499 1499 1498 1498 1497 1495 1494 1493 1490 1489 1489 1489 1486 1486 1487 1488 1489 1490 1491 1491 1492 1493 1496
1499 1499 1499 1498 1498 1498 1497 1497 1496 1496 1495 1494 1494 1493 1493 1492 1492 1492 1491 1491 1490 1490 1489 1489 1489 1488 1488 1487 1486 1486 1486 1485 1484 1483 1483 1484 1484 1484 1484 1485 1485 1486 1487 1488 1489 1490 1491 1492 1494 1495 1496 1498 1499 1500 1500 1501 1501 1499 1498 1499 1500 1500 1500 1499 1498 1498 1498 1497 1496 1496 1495 1494 1492 1490 1487 1486 1486 1485 1486 1486 1487 1488 1489 1491 1492 1492 1495 1498
1498 1498 1498 1497 1497 1496 1496 1496 1495 1495 1494 1493 1493 1492 1492 1491 1491 1490 1490 1489 1489 1489 1488 1488 1488 1487 1487 1487 1486 1485 1484 1483 1483 1483 1483 1483 1484 1484 1485 1485 1485 1486 1487 1488 1489 1490 1491 1492 1493 1495 1496 1496 1498 1498 1499 1500 1500 1499 1498 1499 1499 1499 1498 1498 1497 1496 1496 1495 1495 1494 1493 1492 1491 1490 1487 1485 1484 1484 1485 1485 1486 1487 1489 1491 1492 1495 1498 1502
1497 1497 1496 1496 1495 1495 1495 1495 1494 1494 1493 1492 1492 1491 1491 1490 1489 1489 1488 1488 1487 1487 1487 1487 1486 1486 1486 1486 1486 1485 1483 1482 1482 1482 1482 1483 1483 1484 1484 1485 1486 1486 1487 1488 1489 1490 1490 1491 1492 1493 1494 1495 1496 1497 1498 1500 1499 1497 1498 1498 1498 1497 1497 1497 1495 1494 1494 1494 1494 1493 1491 1490 1490 1489 1486 1483 1483 1484 1484 1485 1486 1487 1489 1491 1494 1498 1501 1502
1497 1496 1495 1495 1494 1494 1494 1494 1493 1493 1492 1491 1491 1490 1490 1489 1488 1488 1487 1487 1486 1486 1485 1485 1485 1485 1485 1484 1486 1485 1482 1481 1482 1482 1482 1482 1483 1484 1484 1485 1486 1487 1487 1488 1489 1489 1490 1491 1492 1493 1494 1495 1496 1497 1498 1498 1497 1496 1497 1497 1496 1496 1496 1495 1494 1493 1493 1492 1492 1491 1490 1489 1489 1489 1485 1482 1483 1484 1484 1485 1486 1487 1490 1493 1496 1498 1500 1500
1496 1495 1494 1493 1493 1493 1492 1492 1492 1492 1491 1490 1490 1489 1488 1488 1487 1486 1486 1485 1485 1484 1484 1483 1483 1483 1483 1483 1485 1483 1480 1481 1481 1481 1482 1482 1483 1484 1484 1485 1486 1487 1487 1488 1489 1490 1491 1492 1493 1494 1493 1494 1496 1496 1497 1496 1496 1495 1496 1496 1495 1495 1494 1494 1493 1492 1492 1491 1490 1490 1490 1489 1489 1488 1484 1482 1483 1484 1485 1485 1486 1488 1491 1494 1496 1498 1499 1500
1495 1494 1493 1492 1492 1491 1491 1491 1490 1490 1490 1489 1489 1488 1487 1486 1485 1485 1484 1484 1483 1482 1482 1482 1481 1481 1482 1482 1481 1480 1479 1480 1480 1481 1482 1482 1483 1483 1484 1485 1486 1487 1487 1488 1489 1489 1490 1492 1493 1493 1493 1494 1495 1496 1496 1496 1496 1495 1495 1495 1494 1493 1492 1492 1491 1491 1491 1489 1488 1489 1490 1488 1486 1485 1483 1483 1484 1484 1485 1485 1487 1489 1491 1494 1496 1497 1499 1500
1494 1493 1492 1491 1490 1490 1489 1489 1489 1488 1488 1488 1487 1487 1486 1485 1484 1483 1482 1482 1481 1481 1480 1480 1480 1480 1480 1479 1478 1478 1478 1478 1479 1480 1480 1481 1482 1482 1484 1484 1485 1486 1487 1488 1488 1489 1490 1491 1492 1493 1494 1493 1494 1495 1494 1495 1495 1494 1495 1495 1494 1494 1492 1490 1491 1490 1489 1488 1487 1489 1493 1488 1483 1482 1483 1484 1484 1484 1484 1485 1487 1489 1491 1493 1495 1496 1498 1497
1493 1491 1491 1490 1489 1488 1488 1488 1487 1487 1487 1487 1486 1485 1484 1483 1482 1481 1481 1480 1479 1479 1479 1478 1478 1478 1478 1477 1475 1476 1475 1476 1476 1477 1478 1479 1480 1482 1483 1484 1484 1485 1486 1487 1488 1488 1489 1490 1492 1493 1493 1493 1493 1493 1494 1494 1494 1494 1494 1496 1498 1498 1493 1489 1490 1490 1487 1487 1486 1488 1493 1488 1481 1482 1483 1484 1485 1485 1484 1484 1487 1489 1491 1493 1494 1495 1496 1495
1491 1490 1489 1488 1488 1487 1487 1486 1485 1485 1485 1485 1484 1483 1482 1482 1480 1480 1479 1478 1478 1477 1477 1477 1476 1476 1476 1474 1473 1473 1473 1474 1474 1475 1476 1478 1479 1480 1482 1483 1484 1485 1486 1487 1487 1488 1488 1490 1491 1492 1493 1493 1493 1493 1494 1494 1495 1496 1496 1498 1501 1500 1495 1490 1490 1491 1488 1487 1486 1487 1491 1486 1482 1483 1483 1484 1485 1486 1486 1485 1486 1488 1491 1492 1492 1494 1494 1494
1490 1489 1488 1487 1486 1486 1485 1485 1484 1484 1484 1483 1483 1481 1480 1480 1479 1478 1477 1477 1476 1475 1475 1475 1475 1476 1475 1472 1472 1472 1472 1473 1474 1474 1475 1476 1478 1479 1481 1482 1483 1484 1485 1486 1487 1487 1488 1489 1491 1492 1492 1492 1493 1493 1494 1495 1496 1498 1498 1498 1500 1499 1497 1493 1489 1491 1490 1488 1487 1487 1489 1485 1482 1483 1483 1484 1485 1486 1487 1486 1487 1488 1490 1491 1491 1492 1492 1493
1488 1487 1487 1486 1485 1485 1484 1483 1482 1482 1482 1482 1481 1480 1479 1478 1477 1477 1476 1475 1475 1474 1475 1474 1474 1475 1473 1471 1471 1471 1472 1472 1473 1474 1474 1475 1477 1478 1480 1481 1482 1484 1485 1486 1487 1487 1488 1490 1491 1491 1492 1493 1493 1494 1497 1499 1498 1499 1499 1498 1500 1501 1499 1495 1490 1490 1490 1488 1488 1488 1488 1484 1481 1482 1483 1484 1485 1486 1486 1486 1486 1488 1489 1490 1490 1491 1491 1491
1487 1486 1485 1484 1484 1483 1482 1482 1481 1481 1481 1481 1480 1479 1477 1477 1476 1475 1475 1474 1474 1474 1474 1473 1474 1474 1469 1468 1470 1470 1471 1472 1472 1473 1473 1474 1476 1477 1479 1480 1482 1483 1484 1486 1486 1487 1488 1489 1490 1491 1492 1493 1493 1493 1497 1499 1496 1497 1498 1498 1500 1501 1501 1499 1493 1490 1489 1489 1488 1489 1488 1483 1481 1482 1483 1483 1484 1485 1485 1486 1487 1488 1489 1490 1489 1490 1489 1489
1485 1484 1484 1483 1483 1482 1481 1480 1480 1480 1480 1479 1479 1478 1477 1476 1475 1474 1474 1473 1473 1472 1471 1470 1471 1470 1467 1467 1469 1469 1470 1471 1472 1472 1472 1473 1474 1476 1478 1480 1481 1483 1484 1485 1486 1487 1487 1488 1490 1490 1490 1492 1492 1491 1492 1494 1493 1494 1496 1497 1498 1499 1499 1499 1496 1491 1491 1490 1488 1487 1486 1482 1481 1481 1481 1482 1483 1484 1485 1487 1487 1487 1488 1489 1489 1488 1488 1487
1484 1483 1482 1482 1481 1481 1480 1479 1479 1479 1479 1478 1478 1477 1476 1476 1474 1473 1473 1471 1469 1468 1468 1467 1467 1466 1466 1467 1468 1469 1470 1470 1471 1471 1471 1472 1473 1475 1477 1479 1481 1482 1483 1483 1485 1486 1486 1488 1488 1487 1487 1489 1490 1490 1490 1492 1493 1494 1495 1497 1497 1498 1498 1498 1495 1491 1491 1492 1487 1485 1486 1483 1480 1479 1480 1481 1482 1483 1485 1485 1485 1485 1485 1487 1488 1487 1487 1486
1482 1482 1481 1481 1480 1480 1479 1478 1478 1478 1478 1477 1477 1477 1476 1475 1475 1474 1472 1467 1465 1466 1465 1465 1465 1464 1463 1465 1467 1467 1469 1469 1469 1470 1470 1471 1472 1474 1476 1479 1480 1482 1483 1484 1485 1486 1487 1487 1486 1485 1486 1487 1488 1489 1491 1493 1494 1494 1494 1495 1495 1497 1498 1496 1494 1490 1491 1492 1486 1484 1486 1482 1478 1477 1478 1480 1481 1481 1481 1482 1482 1481 1483 1485 1487 1488 1487 1486
1481 1480 1480 1479 1478 1478 1478 1477 1477 1477 1477 1477 1476 1476 1476 1475 1475 1474 1473 1467 1463 1463 1462 1461 1462 1459 1458 1462 1464 1466 1469 1468 1467 1468 1469 1470 1471 1472 1475 1478 1479 1481 1483 1484 1485 1487 1488 1486 1484 1485 1486 1487 1489 1491 1492 1493 1494 1495 1495 1495 1494 1495 1497 1494 1492 1491 1491 1491 1486 1484 1486 1480 1474 1476 1477 1478 1477 1476 1476 1476 1477 1478 1479 1482 1485 1486 1487 1487
1479 1479 1479 1478 1477 1477 1476 1476 1476 1476 1476 1476 1475 1475 1475 1475 1474 1473 1473 1470 1463 1459 1458 1459 1458 1456 1457 1459 1461 1464 1467 1466 1464 1464 1466 1468 1469 1471 1473 1475 1478 1480 1482 1482 1483 1487 1488 1483 1482 1485 1485 1486 1490 1492 1492 1492 1494 1494 1494 1495 1493 1495 1497 1494 1491 1491 1490 1489 1487 1485 1486 1480 1474 1475 1475 1475 1474 1472 1473 1475 1475 1475 1475 1477 1481 1483 1484 1484
1478 1478 1477 1477 1476 1476 1475 1475 1475 1475 1475 1475 1475 1474 1474 1474 1473 1473 1473 1470 1464 1459 1456 1456 1456 1456 1456 1456 1458 1460 1462 1462 1461 1461 1462 1465 1467 1469 1470 1472 1476 1479 1479 1479 1481 1484 1484 1481 1481 1484 1485 1485 1489 1492 1493 1492 1492 1494 1494 1492 1492 1493 1494 1492 1490 1491 1488 1488 1487 1487 1487 1480 1474 1475 1474 1472 1473 1472 1473 1475 1474 1474 1474 1475 1479 1481 1481 1481
1477 1477 1476 1476 1475 1474 1474 1474 1473 1474 1474 1474 1474 1473 1474 1473 1473 1473 1472 1470 1465 1459 1456 1456 1455 1455 1454 1455 1456 1457 1459 1458 1457 1457 1460 1461 1463 1466 1469 1471 1474 1476 1477 1479 1482 1482 1481 1481 1481 1484 1486 1486 1487 1490 1491 1490 1490 1492 1491 1488 1487 1487 1488 1490 1491 1492 1491 1489 1486 1487 1488 1480 1473 1475 1474 1473 1474 1472 1471 1473 1471 1471 1472 1474 1476 1477 1478 1480
1476 1475 1475 1474 1473 1473 1473 1472 1472 1473 1473 1473 1473 1473 1473 1473 1473 1473 1472 1473 1466 1457 1455 1456 1455 1454 1453 1454 1455 1457 1459 1456 1453 1455 1458 1459 1461 1463 1467 1470 1471 1472 1475 1479 1481 1480 1478 1480 1480 1482 1485 1486 1487 1487 1487 1488 1490 1491 1485 1481 1483 1483 1486 1491 1492 1493 1492 1488 1486 1487 1488 1483 1475 1470 1471 1475 1476 1471 1470 1469 1468 1468 1469 1470 1471 1472 1474 1476
1474 1474 1474 1473 1472 1471 1471 1471 1472 1472 1472 1473 1472 1473 1473 1473 1473 1472 1472 1474 1466 1456 1455 1456 1455 1454 1454 1454 1455 1457 1458 1455 1451 1454 1456 1458 1461 1461 1464 1468 1469 1471 1474 1478 1481 1478 1476 1479 1481 1481 1482 1485 1486 1484 1484 1485 1487 1487 1481 1479 1482 1484 1487 1490 1489 1489 1488 1486 1486 1486 1486 1487 1481 1470 1469 1475 1475 1470 1468 1465 1464 1465 1465 1466 1467 1468 1470 1473
1473 1473 1472 1472 1471 1470 1470 1471 1471 1471 1472 1472 1472 1473 1473 1472 1473 1473 1474 1473 1463 1454 1454 1455 1455 1455 1454 1455 1455 1455 1454 1453 1452 1454 1455 1457 1460 1460 1463 1464 1466 1468 1470 1474 1478 1475 1474 1477 1479 1479 1482 1483 1481 1478 1479 1482 1483 1480 1478 1481 1481 1482 1485 1485 1487 1488 1489 1490 1486 1482 1485 1488 1481 1469 1469 1474 1472 1468 1465 1462 1462 1462 1463 1464 1465 1466 1468 1471
1472 1471 1471 1470 1469 1469 1469 1469 1469 1470 1470 1471 1472 1472 1472 1473 1473 1473 1476 1473 1461 1454 1455 1454 1454 1455 1455 1456 1456 1454 1453 1453 1453 1453 1455 1457 1459 1460 1461 1462 1464 1468 1469 1470 1472 1472 1473 1474 1474 1475 1478 1477 1474 1474 1476 1479 1478 1476 1478 1481 1481 1483 1485 1485 1487 1486 1491 1494 1485 1480 1484 1485 1478 1465 1464 1469 1467 1463 1462 1460 1460 1461 1462 1464 1464 1466 1468 1472
1470 1470 1469 1468 1468 1468 1467 1468 1468 1469 1469 1470 1471 1472 1472 1473 1473 1475 1478 1471 1460 1456 1455 1454 1455 1456 1456 1456 1455 1454 1454 1453 1452 1453 1455 1457 1459 1459 1460 1462 1464 1468 1470 1470 1470 1471 1472 1473 1472 1473 1473 1471 1470 1473 1475 1476 1476 1476 1478 1479 1480 1484 1485 1486 1487 1485 1491 1491 1480 1478 1481 1482 1480 1466 1458 1464 1464 1462 1461 1459 1459 1460 1462 1463 1464 1467 1469 1473
1469 1469 1468 1467 1466 1466 1466 1467 1467 1468 1469 1470 1471 1472 1472 1473 1475 1479 1476 1466 1461 1458 1455 1455 1456 1455 1456 1456 1454 1453 1453 1453 1452 1453 1455 1456 1458 1459 1460 1463 1466 1469 1473 1473 1472 1472 1472 1473 1472 1469 1468 1469 1469 1472 1475 1476 1475 1477 1477 1478 1482 1485 1485 1487 1487 1488 1492 1487 1480 1483 1482 1483 1482 1466 1457 1464 1466 1465 1464 1461 1460 1460 1461 1463 1465 1468 1470 1472
1468 1467 1466 1465 1465 1465 1465 1466 1466 1467 1468 1469 1470 1471 1472 1474 1477 1477 1470 1463 1462 1462 1458 1459 1457 1455 1457 1456 1454 1452 1450 1452 1452 1452 1453 1455 1456 1457 1458 1460 1464 1471 1477 1475 1473 1473 1472 1470 1469 1467 1466 1467 1468 1471 1475 1477 1477 1478 1478 1480 1484 1487 1490 1491 1488 1490 1489 1481 1481 1487 1485 1483 1476 1462 1462 1468 1466 1465 1465 1463 1462 1461 1461 1463 1465 1467 1469 1471
1466 1465 1465 1464 1464 1464 1465 1465 1466 1467 1467 1468 1470 1470 1472 1477 1477 1473 1469 1465 1464 1463 1461 1461 1458 1456 1457 1454 1451 1450 1449 1450 1450 1450 1452 1454 1456 1457 1458 1459 1459 1464 1472 1476 1475 1474 1472 1468 1467 1468 1466 1463 1465 1469 1470 1473 1475 1476 1476 1479 1481 1486 1496 1499 1494 1495 1490 1479 1481 1487 1484 1480 1469 1461 1466 1468 1465 1465 1463 1462 1461 1461 1462 1463 1465 1467 1469 1471
1465 1464 1463 1463 1463 1464 1464 1464 1465 1466 1467 1468 1468 1470 1474 1477 1474 1472 1471 1469 1466 1464 1462 1462 1460 1456 1455 1453 1450 1449 1449 1449 1449 1450 1452 1455 1458 1460 1459 1460 1460 1460 1466 1474 1476 1475 1476 1471 1464 1463 1462 1459 1461 1462 1461 1465 1471 1472 1471 1472 1475 1476 1483 1489 1486 1485 1482 1477 1481 1485 1481 1474 1465 1464 1467 1465 1464 1464 1462 1461 1461 1461 1463 1464 1466 1469 1471 1473
1463 1463 1463 1463 1463 1464 1463 1464 1464 1465 1466 1467 1468 1472 1473 1473 1473 1473 1472 1470 1467 1466 1463 1462 1461 1456 1453 1453 1452 1450 1449 1450 1450 1450 1452 1453 1456 1458 1458 1457 1460 1461 1463 1471 1474 1474 1477 1471 1458 1457 1459 1456 1457 1456 1457 1462 1469 1473 1471 1471 1474 1467 1466 1480 1486 1484 1481 1479 1480 1482 1477 1470 1465 1466 1466 1464 1464 1463 1462 1462 1461 1462 1463 1465 1467 1469 1471 1474
1462 1462 1463 1464 1464 1463 1463 1463 1463 1464 1466 1467 1468 1472 1472 1470 1471 1473 1471 1469 1469 1468 1465 1461 1458 1458 1456 1455 1454 1451 1449 1449 1450 1451 1452 1454 1453 1455 1456 1454 1456 1458 1459 1465 1471 1473 1474 1467 1456 1457 1458 1455 1456 1455 1456 1459 1463 1472 1473 1468 1468 1463 1461 1476 1490 1493 1490 1483 1481 1482 1476 1468 1466 1467 1465 1464 1465 1466 1466 1465 1465 1466 1465 1467 1468 1469 1471 1473
1462 1463 1463 1464 1464 1464 1463 1463 1463 1464 1465 1466 1468 1471 1473 1471 1470 1471 1469 1468 1469 1469 1468 1464 1460 1460 1462 1460 1456 1453 1450 1449 1451 1451 1453 1455 1453 1452 1454 1453 1454 1455 1453 1458 1464 1466 1468 1464 1456 1456 1456 1455 1456 1456 1455 1456 1458 1466 1468 1461 1461 1465 1465 1470 1480 1488 1490 1484 1481 1483 1481 1473 1469 1468 1466 1467 1469 1471 1471 1469 1469 1469 1468 1469 1470 1470 1472 1473
1462 1463 1463 1464 1465 1464 1464 1463 1464 1465 1465 1467 1469 1472 1474 1472 1470 1470 1469 1468 1469 1468 1469 1468 1463 1462 1465 1464 1459 1455 1452 1451 1452 1451 1452 1455 1453 1450 1451 1451 1451 1452 1451 1453 1458 1462 1466 1465 1458 1456 1456 1456 1455 1456 1457 1458 1457 1458 1459 1456 1459 1466 1468 1470 1477 1482 1484 1485 1483 1482 1483 1478 1470 1469 1471 1472 1474 1475 1475 1473 1472 1472 1471 1471 1472 1472 1474 1474
1462 1463 1464 1465 1465 1465 1465 1465 1465 1466 1466 1468 1471 1472 1472 1471 1469 1469 1468 1468 1469 1469 1468 1468 1466 1464 1464 1463 1461 1458 1455 1453 1454 1453 1453 1455 1453 1449 1449 1450 1449 1451 1452 1452 1456 1460 1464 1467 1462 1456 1456 1456 1455 1455 1457 1458 1458 1457 1457 1458 1459 1462 1464 1467 1472 1471 1473 1482 1485 1480 1477 1472 1469 1475 1479 1477 1477 1477 1477 1477 1477 1476 1475 1474 1473 1474 1474 1475
1462 1463 1464 1465 1465 1465 1466 1465 1465 1466 1467 1469 1472 1471 1471 1470 1468 1468 1468 1468 1468 1468 1468 1468 1468 1466 1464 1462 1461 1460 1457 1455 1454 1454 1452 1453 1453 1450 1450 1450 1450 1452 1453 1453 1455 1458 1461 1467 1465 1458 1454 1456 1456 1456 1457 1458 1457 1457 1458 1460 1461 1463 1465 1465 1469 1471 1470 1475 1483 1482 1473 1469 1475 1482 1480 1478 1478 1477 1478 1479 1479 1479 1478 1476 1475 1474 1473 1474
1462 1463 1464 1465 1466 1466 1466 1466 1467 1468 1469 1471 1471 1471 1471 1469 1468 1467 1467 1467 1467 1466 1467 1467 1466 1466 1465 1463 1461 1460 1458 1455 1454 1454 1453 1452 1452 1452 1451 1451 1450 1451 1453 1454 1455 1457 1459 1464 1465 1460 1457 1457 1457 1458 1459 1458 1457 1457 1456 1455 1457 1461 1463 1465 1471 1476 1473 1471 1478 1479 1469 1469 1480 1482 1478 1479 1478 1476 1478 1479 1479 1480 1479 1478 1477 1475 1475 1475
1462 1464 1465 1465 1466 1467 1466 1467 1469 1470 1469 1470 1470 1470 1470 1469 1468 1468 1466 1466 1466 1465 1466 1466 1465 1465 1464 1463 1461 1460 1458 1456 1454 1454 1454 1452 1452 1451 1450 1450 1450 1450 1451 1453 1454 1455 1457 1460 1463 1462 1460 1459 1459 1459 1460 1460 1460 1460 1458 1458 1459 1458 1457 1459 1464 1470 1474 1475 1477 1475 1469 1472 1481 1481 1477 1479 1477 1477 1479 1478 1478 1480 1480 1480 1480 1478 1478 1478
1462 1464 1465 1465 1466 1467 1467 1468 1470 1470 1470 1470 1470 1469 1469 1469 1469 1468 1467 1467 1466 1466 1466 1465 1464 1463 1463 1462 1461 1459 1458 1456 1454 1453 1454 1453 1452 1451 1449 1449 1450 1450 1449 1451 1453 1455 1457 1460 1463 1463 1461 1458 1456 1458 1460 1460 1460 1460 1461 1464 1465 1463 1461 1459 1460 1463 1469 1473 1474 1471 1471 1476 1481 1480 1478 1478 1478 1478 1480 1479 1479 1480 1481 1482 1481 1480 1480 1480
1462 1464 1465 1466 1467 1467 1468 1469 1470 1471 1471 1470 1469 1469 1469 1469 1469 1468 1468 1467 1466 1466 1466 1465 1464 1463 1463 1462 1461 1459 1458 1457 1455 1453 1453 1454 1451 1450 1450 1449 1449 1449 1448 1450 1452 1454 1458 1461 1463 1465 1467 1466 1464 1462 1460 1458 1460 1464 1467 1469 1468 1469 1467 1463 1462 1462 1464 1471 1472 1465 1467 1477 1480 1478 1478 1478 1479 1480 1481 1481 1481 1481 1482 1482 1482 1482 1481 1481
1462 1465 1466 1467 1467 1468 1468 1469 1470 1471 1472 1472 1471 1470 1470 1469 1468 1468 1468 1467 1467 1467 1467 1465 1464 1464 1463 1462 1461 1459 1457 1457 1457 1454 1453 1453 1451 1450 1450 1449 1449 1449 1448 1449 1450 1454 1460 1466 1464 1463 1466 1470 1470 1469 1465 1463 1465 1468 1470 1473 1473 1474 1472 1466 1462 1460 1462 1473 1474 1462 1466 1480 1482 1478 1478 1479 1480 1482 1483 1483 1483 1483 1483 1483 1483 1483 1483 1483
1461 1464 1467 1468 1468 1468 1469 1469 1469 1470 1471 1472 1472 1471 1471 1470 1468 1467 1467 1467 1467 1466 1467 1466 1464 1464 1464 1462 1461 1460 1459 1457 1457 1456 1456 1455 1453 1452 1451 1450 1450 1450 1450 1449 1449 1454 1464 1472 1471 1466 1463 1465 1467 1470 1473 1473 1472 1472 1474 1477 1477 1479 1479 1471 1461 1457 1461 1470 1473 1468 1472 1480 1482 1480 1482 1483 1483 1485 1486 1485 1485 1486 1485 1485 1485 1485 1484 1485
1461 1463 1466 1467 1468 1469 1469 1470 1470 1470 1471 1471 1471 1472 1472 1471 1469 1468 1467 1467 1467 1466 1467 1466 1466 1465 1466 1464 1461 1461 1461 1459 1458 1458 1459 1458 1457 1455 1453 1452 1451 1451 1452 1450 1450 1456 1465 1472 1475 1474 1472 1472 1473 1475 1476 1476 1478 1481 1482 1481 1479 1480 1479 1471 1464 1466 1467 1463 1467 1475 1477 1478 1483 1486 1486 1486 1487 1487 1488 1488 1488 1488 1488 1488 1487 1486 1486 1486
1461 1463 1465 1466 1467 1468 1469 1469 1470 1470 1471 1471 1472 1473 1472 1471 1471 1469 1468 1467 1467 1466 1466 1466 1467 1467 1467 1467 1463 1461 1461 1461 1460 1462 1462 1460 1458 1457 1457 1456 1452 1452 1454 1452 1451 1455 1463 1471 1476 1477 1477 1477 1477 1476 1476 1478 1481 1485 1484 1483 1482 1480 1478 1475 1476 1480 1476 1465 1466 1476 1479 1481 1489 1492 1490 1490 1490 1489 1490 1491 1491 1491 1490 1489 1488 1488 1488 1488
1461 1463 1465 1465 1466 1468 1470 1470 1470 1470 1471 1472 1472 1473 1472 1471 1471 1470 1470 1468 1467 1467 1466 1466 1468 1467 1466 1467 1465 1463 1464 1462 1463 1466 1465 1463 1462 1461 1463 1462 1456 1454 1456 1455 1454 1455 1461 1471 1477 1476 1477 1478 1478 1477 1477 1478 1482 1485 1486 1486 1484 1482 1480 1480 1482 1482 1478 1473 1475 1481 1484 1490 1494 1494 1493 1494 1493 1492 1493 1493 1493 1493 1492 1491 1490 1489 1490 1490
1461 1462 1464 1465 1467 1469 1470 1470 1470 1470 1471 1472 1472 1472 1472 1471 1471 1471 1470 1469 1468 1468 1467 1468 1469 1468 1466 1466 1465 1465 1467 1466 1465 1467 1466 1466 1466 1464 1467 1467 1463 1462 1461 1458 1456 1454 1458 1471 1477 1475 1475 1479 1480 1479 1477 1477 1481 1485 1489 1489 1486 1484 1483 1483 1485 1485 1482 1481 1484 1485 1489 1494 1497 1496 1496 1496 1495 1495 1495 1494 1495 1495 1494 1493 1492 1492 1493 1492
1460 1461 1462 1463 1467 1470 1470 1470 1471 1470 1470 1472 1472 1472 1472 1471 1472 1471 1469 1468 1468 1468 1467 1468 1469 1468 1467 1467 1466 1466 1467 1467 1467 1467 1466 1466 1468 1467 1467 1467 1468 1469 1466 1460 1458 1456 1458 1470 1476 1473 1474 1478 1481 1481 1480 1480 1479 1483 1490 1493 1491 1489 1488 1487 1489 1490 1488 1485 1486 1486 1489 1494 1498 1498 1498 1497 1497 1497 1497 1497 1498 1497 1497 1495 1494 1494 1495 1494
1460 1461 1462 1462 1466 1471 1471 1471 1472 1470 1471 1473 1473 1472 1472 1471 1471 1471 1468 1467 1467 1467 1467 1467 1468 1467 1466 1466 1466 1466 1466 1466 1466 1466 1466 1467 1468 1467 1465 1466 1469 1473 1469 1462 1461 1460 1460 1465 1470 1469 1471 1478 1482 1481 1481 1479 1476 1481 1493 1499 1497 1494 1492 1491 1491 1492 1492 1490 1487 1487 1491 1497 1499 1499 1499 1500 1499 1499 1499 1500 1500 1500 1499 1497 1497 1497 1497 1496